Glover Park, Texas, United States
Lat: 32.76N, Lon: 96.71W
Wx Zone: TXZ119
Local Info
Past Weather Observations for Today

NOTE: This archive is for the closest National Weather Service station to Glover Park. Information may differ from the station used for current weather conditions.

Click here for Long-term Archive

Time Weather Temperature Dewpoint Humidity Pressure Winds Precip Visibility
21:55
Clear
81°F / 27°C 72°F / 22°C 74% 29.98 in
(1015 mb)
S 8.1 mph
(S 13 kph)
- 10SM
21:35
Clear
82°F / 28°C 72°F / 22°C 70% 29.98 in
(1015 mb)
S 8.1 mph
(S 13 kph)
- 7SM
21:15
Clear
82°F / 28°C 72°F / 22°C 70% 29.98 in
(1015 mb)
SSE 9.2 mph
(SSE 15 kph)
- 10SM
20:55
Clear
82°F / 28°C 72°F / 22°C 70% 29.95 in
(1014 mb)
SSE 5.8 mph
(SSE 9 kph)
- 10SM
20:35
Clear
84°F / 29°C 70°F / 21°C 62% 29.95 in
(1014 mb)
ESE 5.8 mph
(ESE 9 kph)
- 10SM
20:15
Clear
84°F / 29°C 72°F / 22°C 66% 29.95 in
(1014 mb)
SE 5.8 mph
(SE 9 kph)
- 10SM
19:55
Clear
84°F / 29°C 72°F / 22°C 66% 29.92 in
(1013 mb)
SSE 5.8 mph
(SSE 9 kph)
- 10SM
19:35
Clear
86°F / 30°C 72°F / 22°C 62% 29.92 in
(1013 mb)
SSE 5.8 mph
(SSE 9 kph)
- 10SM
19:15
Clear
86°F / 30°C 70°F / 21°C 59% 29.92 in
(1013 mb)
SE 4.6 mph
(SE 7 kph)
- 10SM
18:50
Clear
88°F / 31°C 70°F / 21°C 55% 29.92 in
(1013 mb)
SSE 6.9 mph
(SSE 11 kph)
- 10SM
17:50
Clear
90°F / 32°C 70°F / 21°C 52% 29.92 in
(1013 mb)
SE 5.8 mph
(SE 9 kph)
- 10SM
16:50
Clear
88°F / 31°C 70°F / 21°C 55% 29.92 in
(1013 mb)
SE 5.8 mph
(SE 9 kph)
- 10SM
15:50
Partly Cloudy
90°F / 32°C 70°F / 21°C 52% 29.95 in
(1014 mb)
S 6.9 mph
(S 11 kph)
- 10SM
14:50
Partly Cloudy
91°F / 33°C 70°F / 21°C 49% 29.95 in
(1014 mb)
SSE 11.5 mph
(SSE 19 kph)
- 10SM
13:50
Mostly Cloudy
90°F / 32°C 70°F / 21°C 52% 29.98 in
(1015 mb)
S 11.5 mph
(S 19 kph)
- 10SM
12:50
Mostly Cloudy
90°F / 32°C 72°F / 22°C 55% 29.98 in
(1015 mb)
S 11.5 mph
(S 19 kph)
- 10SM
11:50
Partly Cloudy
90°F / 32°C 72°F / 22°C 55% 23.01 in
(779 mb)
SSE 9.2 mph
(SSE 15 kph)
- 7SM
10:50
Partly Cloudy
86°F / 30°C 72°F / 22°C 62% 30.01 in
(1016 mb)
S 9.2 mph
(S 15 kph)
- 7SM
09:50
Partly Cloudy
84°F / 29°C 73°F / 23°C 70% 30.01 in
(1016 mb)
S 10.4 mph
(S 17 kph)
- 7SM
08:50
Partly Cloudy
82°F / 28°C 73°F / 23°C 74% 30.01 in
(1016 mb)
SSE 9.2 mph
(SSE 15 kph)
- 7SM
07:50
Partly Cloudy
81°F / 27°C 73°F / 23°C 79% 30.01 in
(1016 mb)
SSE 9.2 mph
(SSE 15 kph)
- 7SM
06:50
Clear
79°F / 26°C 73°F / 23°C 84% 30.01 in
(1016 mb)
S 5.8 mph
(S 9 kph)
- 7SM
05:50
Clear
75°F / 24°C 73°F / 23°C 94% 29.98 in
(1015 mb)
S 6.9 mph
(S 11 kph)
- 10SM
05:15
Mostly Cloudy
77°F / 25°C 73°F / 23°C 89% 29.98 in
(1015 mb)
S 6.9 mph
(S 11 kph)
- 10SM
04:55
Mostly Cloudy
77°F / 25°C 73°F / 23°C 89% 29.98 in
(1015 mb)
S 6.9 mph
(S 11 kph)
- 7SM
04:35
Partly Cloudy
77°F / 25°C 73°F / 23°C 89% 29.98 in
(1015 mb)
S 5.8 mph
(S 9 kph)
- 10SM
04:15
Clear
77°F / 25°C 73°F / 23°C 89% 29.98 in
(1015 mb)
S 4.6 mph
(S 7 kph)
- 10SM
03:55
Clear
77°F / 25°C 73°F / 23°C 89% 29.95 in
(1014 mb)
S 4.6 mph
(S 7 kph)
- 10SM
03:35
Clear
77°F / 25°C 73°F / 23°C 89% 29.95 in
(1014 mb)
SSE 5.8 mph
(SSE 9 kph)
- 10SM
03:15
Clear
79°F / 26°C 73°F / 23°C 84% 29.95 in
(1014 mb)
S 6.9 mph
(S 11 kph)
- 10SM
02:55
Clear
79°F / 26°C 73°F / 23°C 84% 29.95 in
(1014 mb)
SW 5.8 mph
(SW 9 kph)
- 10SM
02:35
Clear
79°F / 26°C 73°F / 23°C 84% 29.95 in
(1014 mb)
SW 6.9 mph
(SW 11 kph)
- 10SM
02:15
Clear
79°F / 26°C 73°F / 23°C 84% 29.95 in
(1014 mb)
SSE 8.1 mph
(SSE 13 kph)
- 10SM
01:55
Clear
79°F / 26°C 73°F / 23°C 84% 29.95 in
(1014 mb)
SSE 9.2 mph
(SSE 15 kph)
- 10SM
01:35
Clear
79°F / 26°C 73°F / 23°C 84% 29.95 in
(1014 mb)
S 9.2 mph
(S 15 kph)
- 10SM
01:15
Clear
79°F / 26°C 73°F / 23°C 84% 29.95 in
(1014 mb)
S 9.2 mph
(S 15 kph)
- 10SM
00:55
Clear
77°F / 25°C 72°F / 22°C 83% 29.95 in
(1014 mb)
S 6.9 mph
(S 11 kph)
- 7SM
00:35
Clear
77°F / 25°C 72°F / 22°C 83% 29.95 in
(1014 mb)
S 6.9 mph
(S 11 kph)
- 10SM
00:15
Clear
77°F / 25°C 72°F / 22°C 83% 29.95 in
(1014 mb)
S 6.9 mph
(S 11 kph)
- 10SM
Time Weather Temperature Dewpoint Humidity Pressure Winds Precip Visibility


Weather for websites

WeatherForYou.com, LLC is not responsible for any damages or problems caused by this service. Current weather conditions are obtained from the closest station including government and personal stations which may have varying degrees of accuracy. Weather forecasts are derived from the NOAA NDFD. Like all things, this site belongs to Jesus Christ... He just trusts us to maintain it. If you have any questions or comments email webmaster@weatherforyou.com

Copyright © 2015, WeatherForYou.com LLC. All rights reserved.